FW7071 Weather Reports


Display with metric or nautical units.
time (UTC)temp
F
wind
direction
speed
MPH
gust
MPH
rain 1hr
in
rain 24hr
in
rain mn
in
humidity
%
barometer
mb
20260510161402 72 141 2.0 2.0 0.00 0.01 0.01 73 1014.7
20260510160900 70 303 3.0 3.0 0.00 0.01 0.01 72 1014.8
20260510160357 70 300 3.0 3.0 0.00 0.01 0.01 74 1014.7
20260510155855 71 174 2.0 3.0 0.00 0.01 0.01 77 1014.8
20260510155353 71 149 1.0 1.0 0.00 0.01 0.01 76 1014.7
20260510154849 69 148 0.0 0.0 0.00 0.01 0.01 77 1014.8
20260510154345 70 289 2.0 3.0 0.00 0.01 0.01 79 1014.8
20260510153839 69 214 3.0 3.0 0.00 0.01 0.01 78 1014.7
20260510153335 69 187 1.0 2.0 0.00 0.01 0.01 81 1014.7
20260510152832 69 87 0.0 0.0 0.00 0.01 0.01 83 1014.9
20260510152329 68 359 1.0 2.0 0.00 0.01 0.01 83 1015.0
20260510151826 66 107 1.0 1.0 0.00 0.01 0.01 85 1015.2
20260510151324 65 128 0.0 1.0 0.00 0.01 0.01 87 1015.0
20260510150819 66 303 1.0 2.0 0.00 0.01 0.01 85 1014.9
20260510150315 65 154 0.0 1.0 0.00 0.01 0.01 88 1014.9
20260510145812 65 231 2.0 2.0 0.00 0.01 0.01 87 1015.1
20260510145308 64 260 2.0 2.0 0.00 0.01 0.01 87 1014.9
20260510144805 64 117 1.0 1.0 0.00 0.01 0.01 88 1014.9
20260510144302 64 123 1.0 2.0 0.00 0.01 0.01 88 1014.9
20260510143801 63 112 0.0 0.0 0.00 0.01 0.01 90 1014.8
20260510143257 62 145 1.0 1.0 0.00 0.01 0.01 92 1014.9
20260510142754 62 222 2.0 3.0 0.00 0.01 0.01 92 1015.1
20260510142251 61 137 1.0 1.0 0.00 0.01 0.01 95 1015.1
20260510141748 60 226 3.0 3.0 0.00 0.01 0.01 97 1014.9
20260510141246 59 232 2.0 2.0 0.00 0.01 0.01 99 1015.2
20260510140742 59 108 0.0 0.0 0.00 0.01 0.01 99 1015.0
20260510140238 58 313 3.0 3.0 0.00 0.01 0.01 99 1015.1
20260510135732 57 285 2.0 2.0 0.00 0.01 0.01 99 1015.0
20260510135228 57 310 2.0 2.0 0.00 0.01 0.01 99 1014.9
20260510134726 57 272 3.0 3.0 0.00 0.01 0.01 99 1015.1
20260510134223 57 318 3.0 5.0 0.00 0.01 0.01 99 1014.9
20260510133718 56 292 1.0 1.0 0.00 0.01 0.01 99 1014.9
20260510133214 56 262 0.0 1.0 0.00 0.01 0.01 99 1014.7
20260510132710 56 302 2.0 2.0 0.00 0.01 0.01 99 1014.7
20260510132208 57 160 0.0 1.0 0.00 0.01 0.01 99 1014.9
20260510131705 55 217 0.0 0.0 0.00 0.01 0.01 99 1014.9
20260510131203 55 257 1.0 1.0 0.00 0.01 0.01 99 1014.8
20260510130659 55 263 1.0 1.0 0.00 0.01 0.01 99 1014.8
20260510130156 55 289 2.0 2.0 0.00 0.01 0.01 99 1014.8
20260510125652 54 288 0.0 1.0 0.00 0.01 0.01 99 1014.8
20260510125149 54 213 0.0 0.0 0.00 0.01 0.01 99 1015.0
20260510124646 53 283 1.0 1.0 0.00 0.01 0.01 99 1015.1
20260510124143 54 228 1.0 1.0 0.00 0.01 0.01 99 1015.0
20260510123638 53 237 0.0 0.0 0.00 0.01 0.01 99 1015.0
20260510123134 53 171 0.0 0.0 0.00 0.01 0.01 99 1014.9
20260510122631 53 223 0.0 0.0 0.00 0.01 0.01 99 1014.8
20260510122127 53 243 0.0 0.0 0.00 0.01 0.01 99 1014.5
20260510121624 53 303 1.0 2.0 0.00 0.01 0.01 99 1014.4
20260510121121 53 173 0.0 0.0 0.00 0.01 0.01 99 1014.6
20260510120619 53 240 1.0 1.0 0.00 0.01 0.01 99 1014.4
20260510120114 53 200 0.0 0.0 0.00 0.01 0.01 99 1014.6
20260510115611 53 238 1.0 1.0 0.00 0.01 0.01 99 1014.5
20260510115108 52 243 0.0 1.0 0.00 0.01 0.01 99 1014.4
20260510114604 52 298 1.0 1.0 0.00 0.01 0.01 99 1014.2
20260510114100 52 164 0.0 0.0 0.00 0.01 0.01 99 1014.1
20260510113555 53 182 0.0 0.0 0.00 0.01 0.01 99 1014.1
20260510113053 52 156 0.0 0.0 0.00 0.01 0.01 99 1013.9
20260510112549 52 243 0.0 1.0 0.00 0.01 0.01 99 1013.9
20260510112046 52 248 1.0 1.0 0.00 0.01 0.01 99 1013.2
20260510111543 52 127 1.0 1.0 0.00 0.01 0.01 99 1013.5
20260510111039 52 245 0.0 0.0 0.00 0.01 0.01 99 1013.8
20260510110535 52 153 0.0 0.0 0.00 0.01 0.01 99 1013.8
20260510110031 52 144 0.0 0.0 0.00 0.01 0.01 99 1013.6
20260510105527 52 188 0.0 0.0 0.00 0.01 0.01 99 1013.4
20260510105022 51 191 0.0 0.0 0.00 0.01 0.01 99 1013.5
20260510104519 51 203 0.0 0.0 0.00 0.01 0.01 99 1013.8
20260510104015 51 203 0.0 0.0 0.00 0.01 0.01 99 1013.6
20260510103512 51 203 0.0 0.0 0.00 0.01 0.01 99 1013.6
20260510103008 51 203 0.0 0.0 0.00 0.01 0.01 99 1013.6
20260510102504 51 230 0.0 0.0 0.00 0.01 0.01 99 1013.7
20260510102001 51 242 0.0 0.0 0.00 0.01 0.01 99 1013.7
20260510101458 51 252 0.0 0.0 0.00 0.01 0.01 99 1013.6
20260510100956 51 252 0.0 0.0 0.00 0.01 0.01 99 1013.8
20260510100452 51 283 1.0 1.0 0.00 0.01 0.01 99 1013.5
20260510095949 51 201 0.0 0.0 0.00 0.01 0.01 99 1013.3
20260510095444 51 163 0.0 0.0 0.00 0.01 0.01 99 1013.3
20260510094944 51 160 0.0 0.0 0.00 0.01 0.01 99 1013.1
20260510094439 51 159 0.0 0.0 0.00 0.01 0.01 99 1013.0
20260510093935 51 165 0.0 0.0 0.00 0.01 0.01 99 1013.3
20260510093430 51 236 0.0 0.0 0.00 0.01 0.01 99 1013.0
20260510092927 51 237 1.0 1.0 0.00 0.01 0.01 99 1013.2
20260510092419 51 117 1.0 2.0 0.00 0.01 0.01 99 1013.0
20260510091918 51 147 0.0 0.0 0.00 0.01 0.01 99 1013.0
20260510091416 51 134 0.0 0.0 0.00 0.01 0.01 99 1013.0
20260510090912 51 143 0.0 0.0 0.00 0.01 0.01 99 1012.7
20260510090409 51 129 1.0 1.0 0.00 0.01 0.01 99 1012.9
20260510085905 51 140 0.0 0.0 0.00 0.01 0.01 99 1012.6
20260510085400 51 124 0.0 0.0 0.00 0.01 0.01 99 1012.8
20260510084855 51 96 0.0 0.0 0.00 0.01 0.01 99 1013.1
20260510084353 51 142 0.0 1.0 0.00 0.01 0.01 99 1013.2
20260510083849 51 159 0.0 0.0 0.00 0.01 0.01 99 1013.1
20260510083340 51 160 0.0 0.0 0.00 0.01 0.01 99 1013.3
20260510082836 51 165 0.0 0.0 0.00 0.01 0.01 99 1013.2
20260510082333 51 138 0.0 0.0 0.00 0.01 0.01 99 1013.2
20260510081832 51 177 0.0 0.0 0.00 0.01 0.01 99 1013.2
20260510081328 51 229 0.0 0.0 0.00 0.01 0.01 99 1013.3
20260510080824 51 258 0.0 0.0 0.00 0.01 0.01 99 1013.5
20260510080319 51 152 0.0 0.0 0.00 0.01 0.01 99 1013.1
20260510075817 51 264 0.0 1.0 0.00 0.01 0.01 99 1013.1
20260510075314 51 196 0.0 0.0 0.00 0.01 0.01 99 1013.2
20260510074811 51 162 0.0 0.0 0.00 0.01 0.01 99 1012.7
20260510074308 51 254 0.0 1.0 0.00 0.01 0.01 99 1013.5
20260510073803 51 166 1.0 1.0 0.00 0.01 0.01 99 1012.8
20260510073300 51 287 3.0 3.0 0.00 0.01 0.01 99 1012.7
20260510072755 51 129 0.0 0.0 0.00 0.01 0.01 99 1012.5
20260510072252 51 137 0.0 0.0 0.00 0.01 0.01 99 1012.4
20260510071748 51 140 0.0 0.0 0.00 0.01 0.01 99 1012.4
20260510071245 51 143 0.0 0.0 0.00 0.01 0.01 99 1012.6
20260510070744 50 139 0.0 0.0 0.00 0.01 0.01 99 1012.2
20260510070241 50 147 0.0 0.0 0.00 0.01 0.01 99 1012.6
20260510065735 50 169 0.0 0.0 0.00 0.01 0.01 99 1012.5
20260510065232 50 169 0.0 0.0 0.00 0.01 0.01 99 1012.4
20260510064728 50 154 0.0 0.0 0.00 0.01 0.01 99 1012.5
20260510064226 50 172 0.0 0.0 0.00 0.01 0.01 99 1012.8
20260510063722 50 171 0.0 0.0 0.05 0.01 0.01 99 1012.7
20260510063219 50 155 0.0 0.0 0.05 0.01 0.01 99 1012.7
20260510062715 50 272 0.0 0.0 0.00 0.00 0.00 99 1012.7
20260510062212 50 281 0.0 1.0 0.00 0.00 0.00 99 1012.7
20260510061707 50 173 0.0 0.0 0.00 0.00 0.00 99 1012.4
20260510061204 50 122 0.0 0.0 0.00 0.00 0.00 99 1012.6
20260510060701 49 84 0.0 0.0 0.00 0.00 0.00 99 1012.4
20260510060157 49 82 0.0 0.0 0.00 0.00 0.00 99 1012.3
20260510055653 49 77 0.0 1.0 0.00 0.00 0.00 99 1012.4
20260510055152 50 74 0.0 0.0 0.00 0.00 0.00 99 1012.1
20260510054647 50 78 0.0 0.0 0.00 0.00 0.00 99 1012.2
20260510054143 50 82 0.0 0.0 0.00 0.00 0.00 99 1012.5
20260510053642 50 81 0.0 0.0 0.00 0.00 0.00 99 1012.4
20260510053139 50 77 0.0 0.0 0.00 0.00 0.00 99 1012.5
20260510052635 50 82 0.0 0.0 0.00 0.00 0.00 99 1012.5
20260510052131 50 80 0.0 0.0 0.00 0.00 0.00 99 1012.4
20260510051627 50 81 0.0 0.0 0.00 0.00 0.00 99 1012.5
20260510051124 50 82 0.0 1.0 0.00 0.00 0.00 99 1012.4
20260510050621 50 76 0.0 0.0 0.00 0.00 0.00 99 1012.5
20260510050118 51 60 0.0 1.0 0.00 0.00 0.00 99 1012.7
20260510045615 50 73 0.0 0.0 0.00 0.00 0.00 99 1012.6
20260510045111 50 86 0.0 0.0 0.00 0.00 0.00 99 1012.6
20260510044608 50 82 0.0 0.0 0.00 0.00 0.00 99 1012.7
20260510044105 50 86 0.0 0.0 0.00 0.00 0.00 99 1012.7
20260510043600 50 86 0.0 0.0 0.00 0.00 0.00 99 1012.6
20260510043057 49 86 0.0 0.0 0.00 0.00 0.00 99 1012.6
20260510042555 49 86 0.0 0.0 0.00 0.00 0.00 99 1012.6
20260510042051 49 87 0.0 0.0 0.00 0.00 0.00 99 1012.7
20260510041548 49 86 0.0 0.0 0.00 0.00 0.00 99 1012.6
20260510041045 49 86 0.0 0.0 0.00 0.00 0.00 99 1012.9
20260510040542 49 86 0.0 0.0 0.00 0.00 0.00 99 1012.8
20260510040038 50 86 0.0 0.0 0.00 0.25 0.25 99 1012.6
20260510035534 50 86 0.0 0.0 0.00 0.25 0.25 99 1012.7
20260510035034 50 86 0.0 0.0 0.00 0.25 0.25 99 1012.8
20260510034533 50 86 0.0 0.0 0.00 0.25 0.25 99 1012.6
20260510034029 50 86 0.0 0.0 0.00 0.25 0.25 99 1012.7
20260510033525 51 86 0.0 0.0 0.00 0.25 0.25 99 1012.7
20260510033023 50 87 0.0 0.0 0.00 0.25 0.25 99 1012.6
20260510032519 50 86 0.0 0.0 0.00 0.25 0.25 99 1012.7
20260510032015 51 86 0.0 0.0 0.00 0.25 0.25 99 1012.7
20260510031510 51 86 0.0 0.0 0.00 0.25 0.25 99 1012.5
20260510031006 51 86 0.0 0.0 0.00 0.25 0.25 99 1012.4
20260510030502 50 86 0.0 0.0 0.00 0.25 0.25 99 1012.4
20260510025959 51 86 0.0 0.0 0.00 0.25 0.25 99 1012.6
20260510025456 51 86 0.0 0.0 0.00 0.25 0.25 99 1012.5
20260510024954 51 86 0.0 0.0 0.00 0.25 0.25 99 1012.5
20260510024450 51 39 0.0 0.0 0.00 0.25 0.25 99 1012.3
20260510023946 51 77 0.0 0.0 0.00 0.25 0.25 99 1012.4
20260510023442 52 104 0.0 0.0 0.00 0.25 0.25 99 1012.3
20260510022939 52 102 0.0 0.0 0.00 0.25 0.25 99 1012.4
20260510022438 52 94 0.0 0.0 0.00 0.25 0.25 99 1012.3
20260510021938 52 124 0.0 0.0 0.00 0.25 0.25 99 1012.2
20260510021436 52 124 0.0 0.0 0.00 0.25 0.25 99 1012.3
20260510020933 51 123 0.0 0.0 0.00 0.25 0.25 99 1012.1
20260510020433 52 124 0.0 0.0 0.00 0.25 0.25 99 1012.3
20260510015929 52 123 0.0 0.0 0.00 0.25 0.25 99 1012.5
20260510015425 52 123 0.0 0.0 0.00 0.25 0.25 99 1012.4
20260510014920 53 124 0.0 0.0 0.00 0.25 0.25 99 1012.1
20260510014418 53 152 0.0 0.0 0.00 0.25 0.25 99 1012.1
20260510013914 53 150 0.0 0.0 0.00 0.25 0.25 99 1012.0
20260510013409 53 150 0.0 0.0 0.00 0.25 0.25 99 1012.2
20260510012904 53 150 0.0 0.0 0.00 0.25 0.25 99 1012.2
20260510012400 54 164 0.0 1.0 0.00 0.25 0.25 99 1012.0
20260510011854 54 168 0.0 0.0 0.00 0.25 0.25 99 1011.7
20260510011350 54 142 0.0 0.0 0.00 0.25 0.25 99 1012.1
20260510010846 54 183 0.0 1.0 0.00 0.25 0.25 99 1012.0
20260510010344 54 137 0.0 0.0 0.00 0.25 0.25 99 1011.7
20260510005840 54 118 0.0 0.0 0.00 0.25 0.25 99 1011.9
20260510005337 55 170 0.0 0.0 0.00 0.25 0.25 99 1011.8
20260510004834 55 170 0.0 0.0 0.00 0.25 0.25 99 1011.7
20260510004332 55 206 0.0 1.0 0.00 0.25 0.25 99 1011.7
20260510003829 55 201 0.0 1.0 0.00 0.25 0.25 99 1011.5
20260510003326 55 152 0.0 0.0 0.00 0.25 0.25 99 1011.7
20260510002825 55 108 1.0 1.0 0.00 0.25 0.25 99 1011.7
20260510002322 55 162 0.0 0.0 0.00 0.25 0.25 99 1011.4
20260510001818 55 142 0.0 0.0 0.00 0.25 0.25 99 1011.6
20260510001317 55 155 0.0 0.0 0.00 0.25 0.25 99 1011.5
20260510000812 56 159 0.0 0.0 0.00 0.25 0.25 99 1011.4
20260510000311 56 109 1.0 2.0 0.00 0.25 0.25 99 1011.4
20260509235807 56 73 0.0 1.0 0.00 0.25 0.25 98 1011.2
20260509235306 56 162 0.0 0.0 0.00 0.25 0.25 98 1011.5
20260509234759 57 169 0.0 0.0 0.00 0.25 0.25 97 1011.5
20260509234256 57 159 0.0 0.0 0.00 0.25 0.25 97 1011.4
20260509233755 58 149 0.0 1.0 0.00 0.25 0.25 96 1011.3
20260509233252 58 144 1.0 1.0 0.00 0.25 0.25 96 1011.6
20260509232748 58 226 1.0 1.0 0.00 0.25 0.25 96 1011.3
20260509232245 58 217 1.0 1.0 0.00 0.25 0.25 96 1011.5
20260509231741 58 171 0.0 0.0 0.00 0.25 0.25 97 1011.5
20260509231238 58 163 0.0 0.0 0.00 0.25 0.25 96 1011.6
20260509230736 59 151 0.0 0.0 0.00 0.25 0.25 96 1011.6
20260509230233 59 189 1.0 1.0 0.00 0.25 0.25 95 1011.4
20260509225728 59 90 1.0 1.0 0.00 0.25 0.25 94 1011.4
20260509225224 59 180 1.0 1.0 0.00 0.25 0.25 93 1011.2
20260509224720 59 61 0.0 1.0 0.00 0.25 0.25 93 1011.5
20260509224217 59 216 0.0 0.0 0.00 0.25 0.25 94 1011.2
20260509223714 59 206 0.0 1.0 0.00 0.25 0.25 94 1011.2
20260509223211 59 182 1.0 1.0 0.00 0.25 0.25 95 1011.3
20260509222708 60 70 1.0 2.0 0.00 0.25 0.25 94 1011.5
20260509222203 59 208 0.0 0.0 0.00 0.25 0.25 95 1011.4
20260509221659 60 234 0.0 0.0 0.00 0.25 0.25 97 1011.5
20260509221155 58 174 0.0 0.0 0.00 0.25 0.25 98 1011.4
20260509220652 58 124 1.0 1.0 0.00 0.25 0.25 98 1011.4
20260509220148 58 215 0.0 0.0 0.00 0.25 0.25 99 1011.4
20260509215644 58 87 0.0 0.0 0.00 0.25 0.25 99 1011.4
20260509215141 58 202 0.0 0.0 0.00 0.25 0.25 99 1011.3
20260509214638 58 171 0.0 0.0 0.00 0.25 0.25 99 1011.2
20260509214134 57 105 0.0 0.0 0.00 0.25 0.25 99 1011.1
20260509213631 57 170 0.0 0.0 0.00 0.25 0.25 99 1011.4
20260509213127 57 88 1.0 1.0 0.00 0.25 0.25 99 1011.4
20260509212625 57 108 0.0 0.0 0.00 0.25 0.25 99 1011.3
20260509212122 57 156 0.0 0.0 0.00 0.25 0.25 99 1011.5
20260509211617 57 151 0.0 0.0 0.00 0.25 0.25 99 1011.2
20260509211114 57 150 0.0 1.0 0.00 0.25 0.25 99 1011.5
20260509210611 57 225 0.0 0.0 0.00 0.25 0.25 99 1011.5
20260509210108 57 280 1.0 1.0 0.00 0.25 0.25 99 1011.7
20260509205602 57 50 0.0 0.0 0.00 0.25 0.25 99 1011.5
20260509205057 57 302 2.0 2.0 0.00 0.25 0.25 99 1011.8
20260509204554 57 203 1.0 1.0 0.00 0.25 0.25 99 1011.8
20260509204050 58 218 0.0 0.0 0.00 0.25 0.25 99 1011.6
20260509203546 57 212 0.0 0.0 0.00 0.25 0.25 99 1011.6
20260509203045 57 176 0.0 1.0 0.00 0.25 0.25 99 1011.8
20260509202539 56 70 1.0 1.0 0.00 0.25 0.25 99 1011.8
20260509202034 56 282 0.0 1.0 0.00 0.25 0.25 99 1011.8
20260509201529 56 249 0.0 1.0 0.00 0.25 0.25 99 1011.7
20260509201022 55 49 2.0 2.0 0.00 0.25 0.25 99 1011.5
20260509200521 56 72 0.0 1.0 0.00 0.25 0.25 99 1011.7
20260509200019 55 66 1.0 1.0 0.00 0.25 0.25 99 1011.9
20260509195514 55 75 0.0 1.0 0.00 0.25 0.25 99 1011.8
20260509195013 55 76 0.0 0.0 0.07 0.25 0.25 99 1012.2
20260509194509 55 66 0.0 0.0 0.07 0.25 0.25 99 1012.1
20260509194007 55 140 0.0 0.0 0.00 0.24 0.24 99 1012.0
20260509193507 55 87 0.0 0.0 0.00 0.24 0.24 99 1012.1
20260509193004 55 175 0.0 0.0 0.00 0.24 0.24 99 1012.1
20260509192500 55 119 1.0 1.0 0.00 0.24 0.24 99 1012.4
20260509191954 56 179 0.0 0.0 0.00 0.24 0.24 99 1012.2
20260509191450 55 198 0.0 0.0 0.05 0.24 0.24 99 1012.3
20260509190946 55 237 0.0 1.0 0.12 0.24 0.24 99 1012.5
20260509190443 55 185 0.0 0.0 0.19 0.23 0.23 99 1012.8
20260509185941 55 186 0.0 0.0 0.19 0.22 0.22 99 1012.9
20260509185438 54 180 0.0 0.0 0.19 0.20 0.20 99 1012.8
20260509184935 54 231 0.0 0.0 0.17 0.19 0.19 99 1013.0
20260509184433 54 298 2.0 2.0 0.24 0.17 0.17 99 1013.1
20260509183929 55 320 1.0 1.0 0.24 0.16 0.16 99 1013.2
20260509183423 55 241 0.0 0.0 0.12 0.13 0.13 99 1013.2
20260509182920 55 276 1.0 1.0 0.05 0.11 0.11 99 1013.2
20260509182416 55 231 0.0 0.0 0.05 0.11 0.11 99 1013.2
20260509181914 55 205 0.0 0.0 0.07 0.10 0.10 99 1013.0
20260509181412 55 237 0.0 0.0 0.07 0.10 0.10 99 1013.0
20260509180908 55 292 1.0 1.0 0.00 0.09 0.09 99 1013.3
20260509180404 55 210 0.0 0.0 0.00 0.09 0.09 99 1013.2
20260509175901 55 288 1.0 1.0 0.07 0.09 0.09 99 1013.3
20260509175357 55 282 0.0 0.0 0.12 0.09 0.09 99 1013.3
20260509174854 55 269 2.0 2.0 0.12 0.08 0.08 99 1013.3
20260509174350 55 290 3.0 3.0 0.12 0.07 0.07 98 1013.2
20260509173846 55 236 3.0 3.0 0.05 0.06 0.06 98 1013.4
20260509173341 56 215 1.0 1.0 0.07 0.05 0.05 98 1013.1
20260509172837 56 284 0.0 1.0 0.07 0.05 0.05 98 1013.4
20260509172334 56 221 2.0 2.0 0.00 0.04 0.04 98 1013.2
20260509171830 56 229 1.0 2.0 0.00 0.04 0.04 98 1013.1
20260509171326 57 219 1.0 1.0 0.00 0.04 0.04 98 1012.9
20260509170823 57 258 1.0 1.0 0.00 0.04 0.04 98 1013.2
20260509170318 57 259 1.0 2.0 0.00 0.04 0.04 97 1012.9
20260509165818 57 186 0.0 0.0 0.05 0.04 0.04 97 1012.9
20260509165313 57 186 0.0 0.0 0.05 0.04 0.04 97 1012.6
20260509164809 56 191 0.0 0.0 0.00 0.03 0.03 96 1013.0
20260509164306 56 306 0.0 1.0 0.00 0.03 0.03 95 1012.8
20260509163802 57 201 1.0 1.0 0.00 0.03 0.03 95 1013.1
20260509163258 57 201 0.0 0.0 0.00 0.03 0.03 95 1013.1
20260509162758 57 222 2.0 2.0 0.00 0.03 0.03 94 1013.2
20260509162251 57 215 2.0 2.0 0.07 0.03 0.03 93 1013.1
20260509161747 57 274 1.0 2.0 0.05 0.02 0.02 93 1013.0